DLH205 PHNL-CYYC

Flight info

Callsign DLH205
Flight time N/A
Altitude 39000
Route MKK5 APACK R463 AUNTI DCT ZINNO A331 SEDAR DCT TWISP DCT MENBO Q983 NORET IGVEP7
Aircraft A388/J-SADE2E3FGHIJ3J4J5M1RWXY/LB1D1

Departure

Time 2026-05-05 19:31
Airport Daniel K. Inouye International Airport (PHNL)

Arrival

Time N/A
Airport Calgary International Airport (CYYC)
Time Latitude Longitude Altitude Speed Heading
2026-05-05 19:08 21.32890 -157.92330 29 ft 0 kts 317°
2026-05-05 19:14 21.32880 -157.92323 29 ft 2 kts 354°
2026-05-05 19:14 21.32865 -157.92321 29 ft 2 kts 355°
2026-05-05 19:15 21.32850 -157.92320 29 ft 2 kts 351°
2026-05-05 19:15 21.32835 -157.92317 29 ft 2 kts 349°
2026-05-05 19:15 21.32820 -157.92314 29 ft 2 kts 349°
2026-05-05 19:15 21.32805 -157.92311 29 ft 2 kts 350°
2026-05-05 19:16 21.32792 -157.92308 29 ft 1 kts 350°
2026-05-05 19:16 21.32781 -157.92307 29 ft 2 kts 325°
2026-05-05 19:16 21.32771 -157.92295 29 ft 2 kts 274°
2026-05-05 19:16 21.32771 -157.92287 29 ft 1 kts 269°
2026-05-05 19:17 21.32771 -157.92286 29 ft 0 kts 269°
2026-05-05 19:19 21.32771 -157.92298 29 ft 4 kts 269°
2026-05-05 19:19 21.32770 -157.92339 29 ft 7 kts 269°
2026-05-05 19:19 21.32770 -157.92401 29 ft 9 kts 270°
2026-05-05 19:19 21.32771 -157.92477 29 ft 11 kts 270°
2026-05-05 19:20 21.32771 -157.92569 29 ft 13 kts 270°
2026-05-05 19:20 21.32770 -157.92677 29 ft 15 kts 266°
2026-05-05 19:20 21.32749 -157.92789 29 ft 16 kts 259°
2026-05-05 19:20 21.32743 -157.92906 29 ft 16 kts 269°
2026-05-05 19:21 21.32742 -157.93029 29 ft 17 kts 270°
2026-05-05 19:21 21.32742 -157.93157 29 ft 17 kts 270°
2026-05-05 19:21 21.32742 -157.93289 29 ft 18 kts 270°
2026-05-05 19:21 21.32743 -157.93427 29 ft 19 kts 270°
2026-05-05 19:22 21.32743 -157.93570 29 ft 19 kts 270°
2026-05-05 19:22 21.32743 -157.93717 29 ft 20 kts 269°
2026-05-05 19:22 21.32741 -157.93869 29 ft 21 kts 269°
2026-05-05 19:22 21.32724 -157.94022 29 ft 21 kts 245°
2026-05-05 19:23 21.32620 -157.94130 29 ft 21 kts 209°
2026-05-05 19:23 21.32489 -157.94209 29 ft 22 kts 209°
2026-05-05 19:23 21.32353 -157.94290 29 ft 23 kts 209°
2026-05-05 19:23 21.32213 -157.94375 29 ft 23 kts 209°
2026-05-05 19:24 21.32076 -157.94455 29 ft 22 kts 208°
2026-05-05 19:24 21.31941 -157.94534 29 ft 22 kts 208°
2026-05-05 19:24 21.31809 -157.94613 29 ft 21 kts 209°
2026-05-05 19:24 21.31670 -157.94655 29 ft 21 kts 180°
2026-05-05 19:25 21.31534 -157.94641 29 ft 19 kts 173°
2026-05-05 19:25 21.31411 -157.94626 29 ft 17 kts 173°
2026-05-05 19:25 21.31299 -157.94612 29 ft 15 kts 173°
2026-05-05 19:25 21.31201 -157.94600 29 ft 13 kts 173°
2026-05-05 19:26 21.31115 -157.94589 29 ft 12 kts 173°
2026-05-05 19:26 21.31041 -157.94579 29 ft 10 kts 173°
2026-05-05 19:26 21.30979 -157.94572 29 ft 8 kts 173°
2026-05-05 19:26 21.30933 -157.94571 29 ft 5 kts 180°
2026-05-05 19:27 21.30913 -157.94571 29 ft 1 kts 180°
2026-05-05 19:27 21.30910 -157.94571 29 ft 0 kts 180°
2026-05-05 19:27 21.30908 -157.94571 29 ft 0 kts 180°
2026-05-05 19:27 21.30906 -157.94571 29 ft 0 kts 180°
2026-05-05 19:28 21.30904 -157.94571 29 ft 0 kts 180°
2026-05-05 19:28 21.30902 -157.94571 29 ft 0 kts 180°
2026-05-05 19:28 21.30900 -157.94571 29 ft 0 kts 180°
2026-05-05 19:28 21.30898 -157.94571 29 ft 0 kts 180°
2026-05-05 19:29 21.30895 -157.94571 29 ft 1 kts 180°
2026-05-05 19:29 21.30872 -157.94571 29 ft 5 kts 180°
2026-05-05 19:29 21.30825 -157.94571 29 ft 9 kts 180°
2026-05-05 19:29 21.30757 -157.94572 29 ft 11 kts 180°
2026-05-05 19:30 21.30689 -157.94547 29 ft 10 kts 130°
2026-05-05 19:30 21.30680 -157.94481 29 ft 7 kts 89°
2026-05-05 19:30 21.30680 -157.94440 29 ft 7 kts 90°
2026-05-05 19:30 21.30679 -157.94175 29 ft 68 kts 90°
2026-05-05 19:31 21.30680 -157.93427 29 ft 133 kts 90°
2026-05-05 19:31 21.30678 -157.92204 91 ft 191 kts 90°
2026-05-05 19:31 21.30691 -157.90736 786 ft 207 kts 89°
2026-05-05 19:31 21.30733 -157.89114 1384 ft 229 kts 88°
2026-05-05 19:32 21.30772 -157.87405 1910 ft 232 kts 87°
2026-05-05 19:32 21.30807 -157.85691 2415 ft 230 kts 87°
2026-05-05 19:32 21.30851 -157.83984 2920 ft 228 kts 87°
2026-05-05 19:32 21.30900 -157.82301 3417 ft 228 kts 88°
2026-05-05 19:33 21.30966 -157.80598 3890 ft 236 kts 84°
2026-05-05 19:33 21.31567 -157.78843 4412 ft 268 kts 63°
2026-05-05 19:33 21.32524 -157.77095 4967 ft 278 kts 58°
2026-05-05 19:33 21.33607 -157.75369 5469 ft 283 kts 56°
2026-05-05 19:34 21.34728 -157.73636 5970 ft 286 kts 56°
2026-05-05 19:34 21.35865 -157.71869 6475 ft 289 kts 56°
2026-05-05 19:34 21.37004 -157.70104 6975 ft 290 kts 56°
2026-05-05 19:35 21.39305 -157.66532 7976 ft 295 kts 56°
2026-05-05 19:35 21.40481 -157.64703 8494 ft 312 kts 56°
2026-05-05 19:35 21.41772 -157.62695 9068 ft 346 kts 56°
2026-05-05 19:35 21.43199 -157.60473 9652 ft 382 kts 56°
2026-05-05 19:36 21.44771 -157.58028 10215 ft 406 kts 55°
2026-05-05 19:36 21.46381 -157.55524 10728 ft 412 kts 55°
2026-05-05 19:36 21.48008 -157.52990 11231 ft 416 kts 55°
2026-05-05 19:36 21.49647 -157.50437 11734 ft 419 kts 55°
2026-05-05 19:37 21.51298 -157.47863 12236 ft 422 kts 55°
2026-05-05 19:37 21.52960 -157.45273 12738 ft 425 kts 55°
2026-05-05 19:37 21.54634 -157.42660 13242 ft 428 kts 55°
2026-05-05 19:37 21.56378 -157.40056 13732 ft 430 kts 48°
2026-05-05 19:38 21.58595 -157.37926 14235 ft 431 kts 37°
2026-05-05 19:38 21.60955 -157.35934 14755 ft 435 kts 36°
2026-05-05 19:38 21.63384 -157.34010 15257 ft 438 kts 35°
2026-05-05 19:38 21.65846 -157.32098 15757 ft 440 kts 34°
2026-05-05 19:39 21.68323 -157.30171 16256 ft 444 kts 34°
2026-05-05 19:39 21.70818 -157.28233 16756 ft 447 kts 34°
2026-05-05 19:39 21.73349 -157.26264 17259 ft 450 kts 34°
2026-05-05 19:39 21.75876 -157.24299 17758 ft 453 kts 34°
2026-05-05 19:40 21.78419 -157.22319 18258 ft 456 kts 34°
2026-05-05 19:40 21.80981 -157.20325 18758 ft 459 kts 34°
2026-05-05 19:40 21.83559 -157.18317 19258 ft 462 kts 34°
2026-05-05 19:40 21.86153 -157.16295 19757 ft 465 kts 34°
2026-05-05 19:41 21.88768 -157.14257 20258 ft 468 kts 34°
2026-05-05 19:41 21.91416 -157.12191 20762 ft 471 kts 34°
2026-05-05 19:41 21.94063 -157.10125 21262 ft 474 kts 34°
2026-05-05 19:41 21.96727 -157.08045 21763 ft 477 kts 34°
2026-05-05 19:42 21.99408 -157.05951 22263 ft 481 kts 34°
2026-05-05 19:42 22.02107 -157.03839 22762 ft 485 kts 33°
2026-05-05 19:42 22.04835 -157.01707 23266 ft 488 kts 33°
2026-05-05 19:42 22.07577 -156.99564 23731 ft 492 kts 33°
2026-05-05 19:43 22.10359 -156.97386 24186 ft 495 kts 33°
2026-05-05 19:43 22.13139 -156.95210 24637 ft 498 kts 33°
2026-05-05 19:43 22.15933 -156.93020 25062 ft 502 kts 33°
2026-05-05 19:43 22.18751 -156.90812 25436 ft 505 kts 33°
2026-05-05 19:44 22.21585 -156.88589 25815 ft 508 kts 33°
2026-05-05 19:44 22.24433 -156.86355 26193 ft 510 kts 33°
2026-05-05 19:44 22.27295 -156.84108 26570 ft 513 kts 33°
2026-05-05 19:44 22.30190 -156.81833 26951 ft 516 kts 33°
2026-05-05 19:45 22.33080 -156.79563 27329 ft 518 kts 33°
2026-05-05 19:45 22.35986 -156.77278 27708 ft 521 kts 33°
2026-05-05 19:45 22.38903 -156.74982 28087 ft 523 kts 33°
2026-05-05 19:45 22.41834 -156.72676 28467 ft 526 kts 33°
2026-05-05 19:46 22.44780 -156.70355 28831 ft 530 kts 33°
2026-05-05 19:46 22.47763 -156.68006 29096 ft 536 kts 33°
2026-05-05 19:46 22.50783 -156.65625 29352 ft 537 kts 33°
2026-05-05 19:46 22.53708 -156.63143 29600 ft 538 kts 37°
2026-05-05 19:47 22.56570 -156.60572 29854 ft 538 kts 37°
2026-05-05 19:47 22.59445 -156.58019 30106 ft 537 kts 37°
2026-05-05 19:47 22.62314 -156.55467 30356 ft 537 kts 37°
2026-05-05 19:47 22.65180 -156.52917 30608 ft 536 kts 37°
2026-05-05 19:48 22.68043 -156.50367 30860 ft 536 kts 37°
2026-05-05 19:48 22.70926 -156.47799 31113 ft 536 kts 37°
2026-05-05 19:48 22.73785 -156.45250 31366 ft 535 kts 36°
2026-05-05 19:48 22.76640 -156.42704 31618 ft 535 kts 36°
2026-05-05 19:49 22.79494 -156.40157 31873 ft 534 kts 36°
2026-05-05 19:49 22.81387 -156.38467 32041 ft 534 kts 36°
2026-05-05 19:49 22.85186 -156.35072 32380 ft 533 kts 36°
2026-05-05 19:49 22.88029 -156.32532 32622 ft 532 kts 37°
2026-05-05 19:50 22.90888 -156.29974 32863 ft 532 kts 37°
2026-05-05 19:50 22.93725 -156.27436 33105 ft 531 kts 37°
2026-05-05 19:50 22.96556 -156.24900 33346 ft 531 kts 37°
2026-05-05 19:50 22.99386 -156.22366 33588 ft 530 kts 37°
2026-05-05 19:51 23.02209 -156.19836 33829 ft 530 kts 37°
2026-05-05 19:51 23.05030 -156.17304 34073 ft 529 kts 36°
2026-05-05 19:51 23.07846 -156.14777 34315 ft 528 kts 36°
2026-05-05 19:51 23.10683 -156.12230 34558 ft 528 kts 36°
2026-05-05 19:52 23.13496 -156.09702 34800 ft 528 kts 36°
2026-05-05 19:52 23.16306 -156.07176 35042 ft 527 kts 36°
2026-05-05 19:52 23.19114 -156.04651 35285 ft 527 kts 36°
2026-05-05 19:52 23.21918 -156.02127 35527 ft 526 kts 36°
2026-05-05 19:53 23.24719 -155.99606 35770 ft 526 kts 36°
2026-05-05 19:53 23.27521 -155.97080 36010 ft 526 kts 36°
2026-05-05 19:53 23.30343 -155.94537 36258 ft 526 kts 36°
2026-05-05 19:53 23.33145 -155.92009 36501 ft 526 kts 36°
2026-05-05 19:54 23.35947 -155.89481 36744 ft 527 kts 36°
2026-05-05 19:54 23.38757 -155.86944 36932 ft 532 kts 36°
2026-05-05 19:54 23.41602 -155.84374 37066 ft 536 kts 36°
2026-05-05 19:54 23.44460 -155.81791 37199 ft 538 kts 36°
2026-05-05 19:55 23.47322 -155.79200 37325 ft 539 kts 36°
2026-05-05 19:55 23.50211 -155.76588 37454 ft 539 kts 36°
2026-05-05 19:55 23.53081 -155.73991 37582 ft 540 kts 36°
2026-05-05 19:55 23.55953 -155.71391 37709 ft 540 kts 36°
2026-05-05 19:56 23.58825 -155.68790 37838 ft 540 kts 36°
2026-05-05 19:56 23.61695 -155.66189 37965 ft 540 kts 36°
2026-05-05 19:56 23.64565 -155.63587 38094 ft 540 kts 36°
2026-05-05 19:56 23.67439 -155.60979 38224 ft 540 kts 36°
2026-05-05 19:57 23.70332 -155.58353 38355 ft 541 kts 36°
2026-05-05 19:57 23.76077 -155.53134 38618 ft 541 kts 36°
2026-05-05 19:57 23.78951 -155.50520 38750 ft 541 kts 36°
2026-05-05 19:58 23.81824 -155.47907 38884 ft 541 kts 36°
2026-05-05 19:58 23.84699 -155.45290 39018 ft 541 kts 36°
2026-05-05 19:58 23.87575 -155.42671 39115 ft 542 kts 36°
2026-05-05 19:59 23.93366 -155.37395 39112 ft 544 kts 36°
2026-05-05 19:59 23.99146 -155.32124 39095 ft 544 kts 36°
2026-05-05 20:00 24.04906 -155.26862 39096 ft 542 kts 36°
2026-05-05 20:00 24.10669 -155.21590 39098 ft 540 kts 36°
2026-05-05 20:01 24.16397 -155.16343 39098 ft 540 kts 36°
2026-05-05 20:01 24.22122 -155.11092 39099 ft 540 kts 36°
2026-05-05 20:02 24.27836 -155.05843 39098 ft 539 kts 36°
2026-05-05 20:02 24.33563 -155.00575 39099 ft 539 kts 36°
2026-05-05 20:03 24.39273 -154.95317 39098 ft 539 kts 36°
2026-05-05 20:03 24.44970 -154.90063 39096 ft 538 kts 36°
2026-05-05 20:04 24.50681 -154.84790 39096 ft 537 kts 36°
2026-05-05 20:04 24.56366 -154.79533 39094 ft 537 kts 36°